This is the latest recevied weather packets stored in our database for station/object K8BCO. If no packets are shown the sender has not sent any weather packets the latest 10 day(s).
| Time | Temp. | Humidity | Pressure | Rain* | Wind** | Luminosity | Snow |
|---|---|---|---|---|---|---|---|
| 1777464319 | 1.67° C | 92% | 1016.3 hPa | 0 mm | - | 50 W/m² | - |
| 1777463719 | 1.11° C | 92% | 1016.2 hPa | 0 mm | - | 47 W/m² | - |
| 1777463120 | 1.11° C | 92% | 1016.1 hPa | 0 mm | - | 35 W/m² | - |
| 1777462520 | 1.11° C | 92% | 1016 hPa | 0 mm | - | 30 W/m² | - |
| 1777461920 | 0.56° C | 93% | 1016.1 hPa | 0 mm | - | 22 W/m² | - |
| 1777461322 | 0.56° C | 93% | 1016 hPa | 0 mm | - | 18 W/m² | - |
| 1777460721 | 0.56° C | 94% | 1015.9 hPa | 0 mm | - | 12 W/m² | - |
| 1777460124 | 0° C | 94% | 1015.8 hPa | 0 mm | - | 7 W/m² | - |
| 1777459521 | 0° C | 93% | 1015.6 hPa | 0 mm | - | 3 W/m² | - |
| 1777458923 | 0° C | 93% | 1015.6 hPa | 0 mm | - | 1 W/m² | - |
| 1777458321 | 0° C | 93% | 1015.4 hPa | 0 mm | - | 0 W/m² | - |
| 1777457721 | 0° C | 92% | 1015.4 hPa | 0 mm | - | 0 W/m² | - |
| 1777457121 | 0.56° C | 91% | 1015.3 hPa | 0 mm | - | 0 W/m² | - |
| 1777456521 | 0.56° C | 91% | 1015.3 hPa | 0 mm | - | 0 W/m² | - |
| 1777455930 | 1.11° C | 90% | 1015.4 hPa | 0 mm | - | 0 W/m² | - |
| 1777455322 | 1.11° C | 89% | 1015.3 hPa | 0 mm | - | 0 W/m² | - |
| 1777454734 | 1.67° C | 88% | 1015.3 hPa | 0 mm | - | 0 W/m² | - |
| 1777454122 | 1.67° C | 87% | 1015.2 hPa | 0 mm | - | 0 W/m² | - |
| 1777453523 | 2.22° C | 86% | 1015.1 hPa | 0 mm | - | 0 W/m² | - |
| 1777452922 | 2.22° C | 85% | 1015.1 hPa | 0 mm | - | 0 W/m² | - |
| 1777452322 | 2.22° C | 84% | 1015 hPa | 0 mm | - | 0 W/m² | - |
| 1777451723 | 2.78° C | 83% | 1015 hPa | 0 mm | - | 0 W/m² | - |
| 1777451128 | 2.78° C | 82% | 1015 hPa | 0 mm | - | 0 W/m² | - |
| 1777450523 | 3.33° C | 80% | 1015 hPa | 0 mm | - | 0 W/m² | - |
| 1777449924 | 3.33° C | 80% | 1014.8 hPa | 0 mm | - | 0 W/m² | - |
* Rain latest hour (hover to see other rain measurements)
** Current wind speed in m/s (hover to see current wind gust speed)